| time (UTC) | temp F | wind direction | speed knots | gust knots | rain 1hr in | rain 24hr in | rain mn in | humidity % | barometer mb |
| 20260505221539 | 77 | 0 | 0.0 | 1.7 | 0.00 | 0.00 | 0.00 | 86 | 1011.1 |
| 20260505221022 | 77 | 43 | 0.9 | 1.7 | 0.00 | 0.00 | 0.00 | 86 | 1011.1 |
| 20260505220524 | 77 | 53 | 0.0 | 1.7 | 0.00 | 0.00 | 0.00 | 87 | 1011.0 |
| 20260505220049 | 77 | 0 | 0.0 | 1.7 | 0.00 | 0.00 | 0.00 | 88 | 1011.0 |
| 20260505215524 | 77 | 0 | 0.0 | 0.9 | 0.00 | 0.00 | 0.00 | 88 | 1011.1 |
| 20260505215024 | 77 | 0 | 0.0 | 0.9 | 0.00 | 0.00 | 0.00 | 88 | 1011.0 |
| 20260505214539 | 77 | 0 | 0.0 | 0.0 | 0.00 | 0.00 | 0.00 | 89 | 1010.9 |
| 20260505214021 | 77 | 0 | 0.0 | 1.7 | 0.00 | 0.00 | 0.00 | 89 | 1010.9 |
| 20260505213524 | 77 | 0 | 0.0 | 1.7 | 0.00 | 0.00 | 0.00 | 88 | 1011.0 |
| 20260505213039 | 77 | 275 | 0.0 | 0.9 | 0.00 | 0.00 | 0.00 | 88 | 1011.0 |
| 20260505212521 | 77 | 316 | 0.0 | 1.7 | 0.00 | 0.00 | 0.00 | 88 | 1010.9 |
| 20260505212024 | 77 | 352 | 0.9 | 1.7 | 0.00 | 0.00 | 0.00 | 87 | 1010.9 |
| 20260505211545 | 77 | 0 | 0.0 | 1.7 | 0.00 | 0.00 | 0.00 | 87 | 1010.8 |
| 20260505211024 | 77 | 352 | 0.9 | 1.7 | 0.00 | 0.00 | 0.00 | 87 | 1010.6 |
| 20260505210524 | 77 | 0 | 0.0 | 1.7 | 0.00 | 0.00 | 0.00 | 88 | 1010.6 |
| 20260505210035 | 77 | 352 | 0.0 | 1.7 | 0.00 | 0.00 | 0.00 | 88 | 1010.6 |
| 20260505205525 | 77 | 0 | 0.0 | 1.7 | 0.00 | 0.00 | 0.00 | 88 | 1010.6 |
| 20260505205025 | 77 | 19 | 0.0 | 1.7 | 0.00 | 0.00 | 0.00 | 88 | 1010.6 |
| 20260505204538 | 77 | 0 | 0.0 | 1.7 | 0.00 | 0.00 | 0.00 | 88 | 1010.6 |
| 20260505204024 | 77 | 19 | 0.0 | 1.7 | 0.00 | 0.00 | 0.00 | 87 | 1010.6 |
| 20260505203523 | 77 | 19 | 0.0 | 1.7 | 0.00 | 0.00 | 0.00 | 87 | 1010.5 |
| 20260505203040 | 77 | 0 | 0.0 | 1.7 | 0.00 | 0.00 | 0.00 | 87 | 1010.6 |
| 20260505202524 | 77 | 0 | 0.0 | 1.7 | 0.00 | 0.00 | 0.00 | 86 | 1010.5 |
| 20260505202023 | 77 | 0 | 0.0 | 1.7 | 0.00 | 0.00 | 0.00 | 86 | 1010.4 |
| 20260505201542 | 77 | 352 | 0.0 | 1.7 | 0.00 | 0.00 | 0.00 | 85 | 1010.5 |
| 20260505201020 | 77 | 19 | 0.0 | 1.7 | 0.00 | 0.00 | 0.00 | 86 | 1010.4 |
| 20260505200522 | 77 | 11 | 0.9 | 1.7 | 0.00 | 0.00 | 0.00 | 86 | 1010.3 |
| 20260505200040 | 77 | 360 | 0.9 | 1.7 | 0.00 | 0.00 | 0.00 | 86 | 1010.2 |
| 20260505195523 | 78 | 329 | 0.9 | 1.7 | 0.00 | 0.00 | 0.00 | 86 | 1010.1 |
| 20260505195023 | 78 | 330 | 0.9 | 1.7 | 0.00 | 0.00 | 0.00 | 86 | 1010.1 |
| 20260505194543 | 78 | 0 | 0.0 | 1.7 | 0.00 | 0.00 | 0.00 | 85 | 1010.1 |
| 20260505194022 | 78 | 352 | 0.9 | 1.7 | 0.00 | 0.00 | 0.00 | 86 | 1010.1 |
| 20260505193524 | 78 | 340 | 0.9 | 1.7 | 0.00 | 0.00 | 0.00 | 86 | 1010.1 |
| 20260505193044 | 78 | 350 | 0.9 | 1.7 | 0.00 | 0.00 | 0.00 | 86 | 1010.2 |
| 20260505192523 | 78 | 350 | 0.9 | 1.7 | 0.00 | 0.00 | 0.00 | 86 | 1010.2 |
| 20260505192023 | 78 | 350 | 0.0 | 1.7 | 0.00 | 0.00 | 0.00 | 85 | 1010.2 |
| 20260505191549 | 78 | 350 | 0.9 | 1.7 | 0.00 | 0.00 | 0.00 | 86 | 1010.1 |
| 20260505191027 | 78 | 5 | 0.0 | 1.7 | 0.00 | 0.00 | 0.00 | 86 | 1010.2 |
| 20260505190521 | 78 | 5 | 0.0 | 1.7 | 0.00 | 0.00 | 0.00 | 85 | 1010.1 |
| 20260505190041 | 78 | 5 | 0.0 | 1.7 | 0.00 | 0.00 | 0.00 | 83 | 1010.2 |
| 20260505185521 | 78 | 5 | 0.0 | 1.7 | 0.00 | 0.00 | 0.00 | 84 | 1010.1 |
| 20260505185020 | 78 | 5 | 0.0 | 1.7 | 0.00 | 0.00 | 0.00 | 84 | 1010.2 |
| 20260505184538 | 78 | 5 | 0.0 | 1.7 | 0.00 | 0.00 | 0.00 | 84 | 1010.3 |
| 20260505184024 | 78 | 339 | 0.9 | 2.6 | 0.00 | 0.00 | 0.00 | 86 | 1010.3 |
| 20260505183523 | 78 | 338 | 1.7 | 2.6 | 0.00 | 0.00 | 0.00 | 85 | 1010.3 |
| 20260505183036 | 78 | 360 | 0.9 | 2.6 | 0.00 | 0.00 | 0.00 | 86 | 1010.3 |
| 20260505182523 | 78 | 339 | 2.6 | 3.5 | 0.00 | 0.00 | 0.00 | 85 | 1010.4 |
| 20260505182023 | 78 | 348 | 1.7 | 4.3 | 0.00 | 0.00 | 0.00 | 85 | 1010.4 |
| 20260505181535 | 78 | 331 | 2.6 | 4.3 | 0.00 | 0.00 | 0.00 | 85 | 1010.4 |
| 20260505181024 | 78 | 338 | 1.7 | 2.6 | 0.00 | 0.00 | 0.00 | 86 | 1010.5 |
| 20260505180526 | 78 | 329 | 0.0 | 1.7 | 0.00 | 0.00 | 0.00 | 87 | 1010.5 |
| 20260505180047 | 78 | 329 | 0.0 | 1.7 | 0.00 | 0.00 | 0.00 | 86 | 1010.4 |
| 20260505175521 | 78 | 0 | 0.0 | 1.7 | 0.00 | 0.00 | 0.00 | 87 | 1010.4 |
| 20260505175023 | 78 | 0 | 0.0 | 1.7 | 0.00 | 0.00 | 0.00 | 87 | 1010.6 |
| 20260505174548 | 78 | 329 | 0.9 | 1.7 | 0.00 | 0.00 | 0.00 | 87 | 1010.6 |
| 20260505174023 | 78 | 360 | 0.0 | 0.9 | 0.00 | 0.00 | 0.00 | 86 | 1010.6 |
| 20260505173522 | 78 | 0 | 0.0 | 0.0 | 0.00 | 0.00 | 0.00 | 87 | 1010.4 |
| 20260505173038 | 78 | 0 | 0.0 | 0.0 | 0.00 | 0.00 | 0.00 | 87 | 1010.5 |
| 20260505172519 | 78 | 0 | 0.0 | 0.0 | 0.00 | 0.00 | 0.00 | 88 | 1010.5 |
| 20260505172024 | 78 | 0 | 0.0 | 0.0 | 0.00 | 0.00 | 0.00 | 88 | 1010.5 |
| 20260505171539 | 78 | 0 | 0.0 | 0.0 | 0.00 | 0.00 | 0.00 | 89 | 1010.5 |
| 20260505171023 | 78 | 0 | 0.0 | 1.7 | 0.00 | 0.00 | 0.00 | 88 | 1010.6 |
| 20260505170522 | 78 | 0 | 0.0 | 1.7 | 0.00 | 0.00 | 0.00 | 88 | 1010.6 |
| 20260505170048 | 78 | 0 | 0.0 | 1.7 | 0.00 | 0.00 | 0.00 | 88 | 1010.7 |
| 20260505165526 | 78 | 0 | 0.0 | 1.7 | 0.00 | 0.00 | 0.00 | 87 | 1010.8 |
| 20260505165023 | 78 | 0 | 0.0 | 1.7 | 0.00 | 0.00 | 0.00 | 88 | 1010.8 |
| 20260505164540 | 78 | 0 | 0.0 | 0.9 | 0.00 | 0.00 | 0.00 | 88 | 1010.9 |
| 20260505164022 | 78 | 318 | 0.9 | 0.9 | 0.00 | 0.00 | 0.00 | 88 | 1010.8 |
| 20260505163521 | 78 | 318 | 0.9 | 0.9 | 0.00 | 0.00 | 0.00 | 87 | 1010.8 |
| 20260505163043 | 78 | 0 | 0.0 | 0.0 | 0.00 | 0.00 | 0.00 | 87 | 1010.8 |
| 20260505162523 | 78 | 0 | 0.0 | 0.0 | 0.00 | 0.00 | 0.00 | 86 | 1010.8 |
| 20260505162022 | 78 | 0 | 0.0 | 0.0 | 0.00 | 0.00 | 0.00 | 86 | 1010.8 |
| 20260505161543 | 79 | 0 | 0.0 | 1.7 | 0.00 | 0.00 | 0.00 | 86 | 1010.8 |
| 20260505161023 | 79 | 0 | 0.0 | 1.7 | 0.00 | 0.00 | 0.00 | 85 | 1010.8 |
| 20260505160522 | 79 | 0 | 0.0 | 1.7 | 0.00 | 0.00 | 0.00 | 85 | 1010.9 |
| 20260505153051 | 80 | 0 | 0.0 | 2.6 | 0.00 | 0.00 | 0.00 | 79 | 1011.1 |
| 20260505152520 | 80 | 50 | 0.9 | 2.6 | 0.00 | 0.00 | 0.00 | 79 | 1011.2 |
| 20260505152022 | 80 | 0 | 0.0 | 2.6 | 0.00 | 0.00 | 0.00 | 79 | 1011.1 |
| 20260505151542 | 80 | 12 | 0.0 | 2.6 | 0.00 | 0.00 | 0.00 | 80 | 1011.1 |
| 20260505151023 | 80 | 21 | 0.9 | 2.6 | 0.00 | 0.00 | 0.00 | 79 | 1011.3 |
| 20260505150522 | 80 | 56 | 1.7 | 3.5 | 0.00 | 0.00 | 0.00 | 79 | 1011.2 |
| 20260505140522 | 81 | 338 | 1.7 | 2.6 | 0.00 | 0.00 | 0.00 | 79 | 1011.4 |
| 20260505125023 | 82 | 0 | 0.0 | 1.7 | 0.00 | 0.00 | 0.00 | 75 | 1011.0 |
| 20260505124544 | 82 | 91 | 0.9 | 2.6 | 0.00 | 0.00 | 0.00 | 74 | 1011.0 |
| 20260505124021 | 82 | 50 | 0.9 | 2.6 | 0.00 | 0.00 | 0.00 | 75 | 1010.9 |
| 20260505123519 | 82 | 0 | 0.0 | 0.9 | 0.00 | 0.00 | 0.00 | 75 | 1010.8 |
| 20260505123058 | 82 | 0 | 0.0 | 1.7 | 0.00 | 0.00 | 0.00 | 75 | 1010.8 |
| 20260505122522 | 82 | 28 | 0.9 | 1.7 | 0.00 | 0.00 | 0.00 | 74 | 1010.9 |
| 20260505122023 | 82 | 57 | 0.9 | 1.7 | 0.00 | 0.00 | 0.00 | 74 | 1010.8 |
| 20260505121538 | 82 | 0 | 0.0 | 3.5 | 0.00 | 0.00 | 0.00 | 74 | 1010.8 |
| 20260505121024 | 82 | 108 | 1.7 | 3.5 | 0.00 | 0.00 | 0.00 | 75 | 1010.6 |
| 20260505120526 | 82 | 95 | 2.6 | 5.2 | 0.00 | 0.00 | 0.00 | 74 | 1010.5 |
| 20260505120037 | 83 | 95 | 1.7 | 5.2 | 0.00 | 0.00 | 0.00 | 74 | 1010.4 |
| 20260505115520 | 83 | 103 | 1.7 | 5.2 | 0.00 | 0.00 | 0.00 | 73 | 1010.3 |
| 20260505115021 | 83 | 94 | 2.6 | 3.5 | 0.00 | 0.00 | 0.00 | 74 | 1010.3 |
| 20260505114551 | 83 | 126 | 2.6 | 3.5 | 0.00 | 0.00 | 0.00 | 73 | 1010.3 |
| 20260505114023 | 83 | 91 | 1.7 | 3.5 | 0.00 | 0.00 | 0.00 | 73 | 1010.2 |
| 20260505113524 | 83 | 83 | 0.9 | 6.1 | 0.00 | 0.00 | 0.00 | 72 | 1010.2 |
| 20260505113044 | 83 | 93 | 0.9 | 6.1 | 0.00 | 0.00 | 0.00 | 72 | 1010.2 |
| 20260505112520 | 83 | 58 | 1.7 | 5.2 | 0.00 | 0.00 | 0.00 | 72 | 1010.2 |
| 20260505112021 | 83 | 101 | 1.7 | 5.2 | 0.00 | 0.00 | 0.00 | 72 | 1010.4 |
| 20260505111554 | 83 | 47 | 1.7 | 5.2 | 0.00 | 0.00 | 0.00 | 72 | 1010.4 |
| 20260505111026 | 84 | 81 | 1.7 | 7.8 | 0.00 | 0.00 | 0.00 | 72 | 1010.4 |
| 20260505110523 | 84 | 94 | 2.6 | 7.8 | 0.00 | 0.00 | 0.00 | 72 | 1010.2 |
| 20260505102024 | 85 | 32 | 1.7 | 7.0 | 0.00 | 0.00 | 0.00 | 67 | 1010.6 |
| 20260505101538 | 85 | 70 | 1.7 | 5.2 | 0.00 | 0.00 | 0.00 | 67 | 1010.6 |
| 20260505101020 | 86 | 111 | 1.7 | 6.1 | 0.00 | 0.00 | 0.00 | 68 | 1010.5 |
| 20260505100520 | 86 | 71 | 1.7 | 6.1 | 0.00 | 0.00 | 0.00 | 67 | 1010.4 |
| 20260505100042 | 86 | 41 | 2.6 | 7.0 | 0.00 | 0.00 | 0.00 | 67 | 1010.3 |
| 20260505095525 | 86 | 96 | 1.7 | 9.6 | 0.00 | 0.00 | 0.00 | 67 | 1010.1 |
| 20260505095022 | 87 | 69 | 3.5 | 9.6 | 0.00 | 0.00 | 0.00 | 67 | 1010.1 |
| 20260505094542 | 87 | 96 | 3.5 | 8.7 | 0.00 | 0.00 | 0.00 | 67 | 1010.0 |
| 20260505094024 | 87 | 51 | 2.6 | 8.7 | 0.00 | 0.00 | 0.00 | 67 | 1009.9 |
| 20260505093523 | 87 | 77 | 2.6 | 8.7 | 0.00 | 0.00 | 0.00 | 68 | 1009.7 |
| 20260505093039 | 87 | 44 | 2.6 | 6.1 | 0.00 | 0.00 | 0.00 | 68 | 1009.7 |
| 20260505092521 | 87 | 94 | 1.7 | 7.0 | 0.00 | 0.00 | 0.00 | 69 | 1009.6 |
| 20260505092021 | 87 | 40 | 1.7 | 7.0 | 0.00 | 0.00 | 0.00 | 68 | 1009.6 |
| 20260505091539 | 88 | 86 | 1.7 | 7.8 | 0.00 | 0.00 | 0.00 | 69 | 1009.6 |
| 20260505091023 | 88 | 67 | 2.6 | 7.8 | 0.00 | 0.00 | 0.00 | 69 | 1009.4 |
| 20260505090524 | 88 | 103 | 2.6 | 7.8 | 0.00 | 0.00 | 0.00 | 68 | 1009.4 |
| 20260505090039 | 88 | 44 | 1.7 | 7.8 | 0.00 | 0.00 | 0.00 | 68 | 1009.4 |
| 20260505085520 | 88 | 53 | 2.6 | 7.8 | 0.00 | 0.00 | 0.00 | 68 | 1009.5 |
| 20260505085023 | 88 | 46 | 2.6 | 7.8 | 0.00 | 0.00 | 0.00 | 68 | 1009.5 |
| 20260505084541 | 88 | 114 | 1.7 | 7.8 | 0.00 | 0.00 | 0.00 | 67 | 1009.5 |
| 20260505084022 | 88 | 82 | 2.6 | 7.8 | 0.00 | 0.00 | 0.00 | 69 | 1009.5 |
| 20260505083522 | 88 | 59 | 1.7 | 9.6 | 0.00 | 0.00 | 0.00 | 68 | 1009.5 |
| 20260505083047 | 88 | 18 | 3.5 | 9.6 | 0.00 | 0.00 | 0.00 | 68 | 1009.6 |
| 20260505082520 | 88 | 130 | 2.6 | 9.6 | 0.00 | 0.00 | 0.00 | 68 | 1009.5 |
| 20260505082021 | 88 | 91 | 3.5 | 10.4 | 0.00 | 0.00 | 0.00 | 69 | 1009.5 |
| 20260505081547 | 88 | 74 | 3.5 | 10.4 | 0.00 | 0.00 | 0.00 | 67 | 1009.6 |
| 20260505081026 | 88 | 101 | 4.3 | 10.4 | 0.00 | 0.00 | 0.00 | 66 | 1009.6 |
| 20260505080523 | 88 | 46 | 4.3 | 11.3 | 0.00 | 0.00 | 0.00 | 66 | 1009.5 |
| 20260505080041 | 89 | 15 | 4.3 | 11.3 | 0.00 | 0.00 | 0.00 | 65 | 1009.5 |
| 20260505075521 | 90 | 103 | 5.2 | 10.4 | 0.00 | 0.00 | 0.00 | 65 | 1009.5 |
| 20260505075024 | 89 | 84 | 2.6 | 10.4 | 0.00 | 0.00 | 0.00 | 65 | 1009.4 |
| 20260505074543 | 89 | 108 | 2.6 | 8.7 | 0.00 | 0.00 | 0.00 | 66 | 1009.4 |
| 20260505074022 | 89 | 46 | 3.5 | 8.7 | 0.00 | 0.00 | 0.00 | 67 | 1009.5 |
| 20260505073522 | 89 | 92 | 3.5 | 9.6 | 0.00 | 0.00 | 0.00 | 67 | 1009.5 |
| 20260505073036 | 89 | 46 | 4.3 | 9.6 | 0.00 | 0.00 | 0.00 | 68 | 1009.4 |
| 20260505072522 | 89 | 75 | 5.2 | 11.3 | 0.00 | 0.00 | 0.00 | 67 | 1009.6 |
| 20260505072022 | 89 | 103 | 5.2 | 11.3 | 0.00 | 0.00 | 0.00 | 67 | 1009.6 |
| 20260505071541 | 89 | 121 | 8.7 | 12.2 | 0.00 | 0.00 | 0.00 | 66 | 1009.6 |
| 20260505071022 | 89 | 107 | 8.7 | 12.2 | 0.00 | 0.00 | 0.00 | 65 | 1009.6 |
| 20260505070522 | 89 | 113 | 7.8 | 12.2 | 0.00 | 0.00 | 0.00 | 66 | 1009.6 |
| 20260505070047 | 90 | 107 | 5.2 | 10.4 | 0.00 | 0.00 | 0.00 | 65 | 1009.6 |
| 20260505065522 | 90 | 88 | 3.5 | 10.4 | 0.00 | 0.00 | 0.00 | 64 | 1009.5 |
| 20260505065022 | 90 | 79 | 6.1 | 10.4 | 0.00 | 0.00 | 0.00 | 64 | 1009.5 |
| 20260505064553 | 90 | 104 | 6.1 | 10.4 | 0.00 | 0.00 | 0.00 | 63 | 1009.5 |
| 20260505064023 | 89 | 65 | 6.1 | 10.4 | 0.00 | 0.00 | 0.00 | 65 | 1009.5 |
| 20260505063522 | 90 | 116 | 6.1 | 11.3 | 0.00 | 0.00 | 0.00 | 65 | 1009.6 |
| 20260505063043 | 90 | 83 | 7.8 | 11.3 | 0.00 | 0.00 | 0.00 | 64 | 1009.6 |
| 20260505062521 | 90 | 117 | 7.0 | 10.4 | 0.00 | 0.00 | 0.00 | 65 | 1009.6 |
| 20260505062023 | 90 | 100 | 3.5 | 11.3 | 0.00 | 0.00 | 0.00 | 66 | 1009.5 |
| 20260505061540 | 90 | 89 | 7.0 | 11.3 | 0.00 | 0.00 | 0.00 | 65 | 1009.5 |
| 20260505061020 | 90 | 75 | 3.5 | 10.4 | 0.00 | 0.00 | 0.00 | 64 | 1009.5 |
| 20260505060523 | 90 | 68 | 7.0 | 10.4 | 0.00 | 0.00 | 0.00 | 64 | 1009.6 |
| 20260505060041 | 90 | 102 | 4.3 | 9.6 | 0.00 | 0.00 | 0.00 | 64 | 1009.6 |
| 20260505055520 | 90 | 136 | 7.0 | 11.3 | 0.00 | 0.00 | 0.00 | 65 | 1009.6 |
| 20260505055020 | 90 | 153 | 7.0 | 11.3 | 0.00 | 0.00 | 0.00 | 65 | 1009.6 |
| 20260505054541 | 89 | 111 | 7.8 | 11.3 | 0.00 | 0.00 | 0.00 | 63 | 1009.6 |
| 20260505054023 | 90 | 128 | 7.8 | 11.3 | 0.00 | 0.00 | 0.00 | 63 | 1009.7 |
| 20260505053520 | 90 | 148 | 7.0 | 9.6 | 0.00 | 0.00 | 0.00 | 63 | 1009.8 |
| 20260505053036 | 90 | 148 | 3.5 | 8.7 | 0.00 | 0.00 | 0.00 | 63 | 1009.8 |
| 20260505052520 | 90 | 111 | 4.3 | 8.7 | 0.00 | 0.00 | 0.00 | 63 | 1009.8 |
| 20260505052020 | 90 | 99 | 6.1 | 8.7 | 0.00 | 0.00 | 0.00 | 62 | 1009.9 |
| 20260505051539 | 91 | 55 | 6.1 | 8.7 | 0.00 | 0.00 | 0.00 | 60 | 1010.0 |
| 20260505051022 | 91 | 141 | 4.3 | 7.8 | 0.00 | 0.00 | 0.00 | 63 | 1010.0 |
| 20260505050523 | 91 | 72 | 1.7 | 8.7 | 0.00 | 0.00 | 0.00 | 60 | 1009.9 |
| 20260505041553 | 90 | 122 | 6.1 | 10.4 | 0.00 | 0.00 | 0.00 | 64 | 1010.5 |
| 20260505041020 | 89 | 136 | 6.1 | 14.8 | 0.00 | 0.00 | 0.00 | 65 | 1010.6 |
| 20260505040523 | 89 | 141 | 5.2 | 14.8 | 0.00 | 0.00 | 0.00 | 67 | 1010.7 |
| 20260505040039 | 90 | 148 | 7.8 | 12.2 | 0.00 | 0.00 | 0.00 | 65 | 1010.8 |
| 20260505035522 | 90 | 104 | 7.0 | 11.3 | 0.00 | 0.00 | 0.00 | 63 | 1010.8 |
| 20260505035021 | 89 | 119 | 7.0 | 10.4 | 0.00 | 0.00 | 0.00 | 67 | 1010.8 |
| 20260505034541 | 89 | 162 | 5.2 | 9.6 | 0.00 | 0.00 | 0.00 | 68 | 1010.9 |
| 20260505034026 | 89 | 141 | 7.8 | 10.4 | 0.00 | 0.00 | 0.00 | 67 | 1011.0 |
| 20260505033526 | 89 | 140 | 6.1 | 10.4 | 0.00 | 0.00 | 0.00 | 67 | 1011.0 |
| 20260505033040 | 89 | 109 | 6.1 | 8.7 | 0.00 | 0.00 | 0.00 | 69 | 1011.0 |
| 20260505032525 | 89 | 133 | 5.2 | 8.7 | 0.00 | 0.00 | 0.00 | 65 | 1011.0 |
| 20260505032026 | 89 | 177 | 3.5 | 7.0 | 0.00 | 0.00 | 0.00 | 67 | 1011.0 |
| 20260505031540 | 90 | 137 | 2.6 | 7.0 | 0.00 | 0.00 | 0.00 | 62 | 1011.0 |
| 20260505031023 | 89 | 117 | 1.7 | 7.0 | 0.00 | 0.00 | 0.00 | 62 | 1011.1 |
| 20260505030523 | 90 | 124 | 4.3 | 7.0 | 0.00 | 0.00 | 0.00 | 63 | 1011.1 |
| 20260505030038 | 90 | 88 | 2.6 | 8.7 | 0.00 | 0.00 | 0.00 | 60 | 1011.2 |
| 20260505025520 | 90 | 98 | 4.3 | 8.7 | 0.00 | 0.00 | 0.00 | 64 | 1011.1 |
| 20260505025021 | 90 | 130 | 3.5 | 10.4 | 0.00 | 0.00 | 0.00 | 64 | 1011.2 |
| 20260505024544 | 89 | 150 | 6.1 | 13.0 | 0.00 | 0.00 | 0.00 | 60 | 1011.2 |
| 20260505024020 | 90 | 108 | 4.3 | 13.0 | 0.00 | 0.00 | 0.00 | 63 | 1011.2 |
| 20260505023522 | 89 | 134 | 7.8 | 13.0 | 0.00 | 0.00 | 0.00 | 62 | 1011.3 |
| 20260505023043 | 89 | 153 | 1.7 | 8.7 | 0.00 | 0.00 | 0.00 | 61 | 1011.3 |
| 20260505022523 | 89 | 96 | 4.3 | 10.4 | 0.00 | 0.00 | 0.00 | 60 | 1011.5 |
| 20260505022020 | 89 | 105 | 4.3 | 10.4 | 0.00 | 0.00 | 0.00 | 60 | 1011.5 |
| 20260505021544 | 89 | 138 | 6.1 | 12.2 | 0.00 | 0.00 | 0.00 | 60 | 1011.5 |
| 20260505021023 | 89 | 119 | 7.8 | 12.2 | 0.00 | 0.00 | 0.00 | 60 | 1011.4 |
| 20260505020521 | 88 | 136 | 6.1 | 8.7 | 0.00 | 0.00 | 0.00 | 61 | 1011.5 |
| 20260505020038 | 88 | 132 | 5.2 | 8.7 | 0.00 | 0.00 | 0.00 | 62 | 1011.5 |
| 20260505015520 | 88 | 131 | 3.5 | 8.7 | 0.00 | 0.00 | 0.00 | 64 | 1011.5 |
| 20260505015024 | 88 | 126 | 6.1 | 8.7 | 0.00 | 0.00 | 0.00 | 62 | 1011.6 |
| 20260505014542 | 88 | 160 | 6.1 | 9.6 | 0.00 | 0.00 | 0.00 | 63 | 1011.6 |
| 20260505014020 | 88 | 134 | 6.1 | 9.6 | 0.00 | 0.00 | 0.00 | 63 | 1011.7 |
| 20260505013521 | 88 | 130 | 6.1 | 9.6 | 0.00 | 0.00 | 0.00 | 63 | 1011.6 |
| 20260505013036 | 87 | 167 | 3.5 | 8.7 | 0.00 | 0.00 | 0.00 | 63 | 1011.8 |
| 20260505012520 | 87 | 159 | 4.3 | 9.6 | 0.00 | 0.00 | 0.00 | 66 | 1011.9 |
| 20260505012020 | 87 | 138 | 5.2 | 9.6 | 0.00 | 0.00 | 0.00 | 66 | 1011.8 |
| 20260505011536 | 87 | 140 | 5.2 | 8.7 | 0.00 | 0.00 | 0.00 | 67 | 1011.8 |
| 20260505011020 | 86 | 193 | 3.5 | 8.7 | 0.00 | 0.00 | 0.00 | 68 | 1011.7 |
| 20260505010520 | 87 | 154 | 4.3 | 7.0 | 0.00 | 0.00 | 0.00 | 67 | 1011.7 |
| 20260505010043 | 87 | 288 | 1.7 | 4.3 | 0.00 | 0.00 | 0.00 | 66 | 1011.6 |
| 20260505005523 | 87 | 231 | 1.7 | 4.3 | 0.00 | 0.00 | 0.00 | 67 | 1011.6 |
| 20260505005020 | 86 | 285 | 0.9 | 1.7 | 0.00 | 0.00 | 0.00 | 67 | 1011.7 |
| 20260505004538 | 85 | 207 | 0.9 | 1.7 | 0.00 | 0.00 | 0.00 | 69 | 1011.7 |
| 20260505004020 | 86 | 155 | 0.9 | 2.6 | 0.00 | 0.00 | 0.00 | 65 | 1011.8 |
| 20260505003527 | 85 | 0 | 0.0 | 2.6 | 0.00 | 0.00 | 0.00 | 68 | 1011.8 |
| 20260505003039 | 85 | 228 | 0.9 | 2.6 | 0.00 | 0.00 | 0.00 | 70 | 1011.8 |
| 20260505002520 | 85 | 248 | 1.7 | 2.6 | 0.00 | 0.00 | 0.00 | 68 | 1011.8 |
| 20260505002021 | 85 | 215 | 0.9 | 1.7 | 0.00 | 0.00 | 0.00 | 69 | 1011.7 |
| 20260505001548 | 84 | 256 | 0.9 | 1.7 | 0.00 | 0.00 | 0.00 | 72 | 1011.7 |
| 20260505001020 | 84 | 252 | 0.9 | 2.6 | 0.00 | 0.00 | 0.00 | 74 | 1011.6 |
| 20260505000520 | 84 | 196 | 1.7 | 2.6 | 0.00 | 0.00 | 0.00 | 72 | 1011.8 |
| 20260505000041 | 84 | 233 | 1.7 | 2.6 | 0.00 | 0.00 | 0.00 | 71 | 1011.8 |
| 20260504235520 | 84 | 221 | 0.9 | 1.7 | 0.00 | 0.00 | 0.00 | 71 | 1011.9 |
| 20260504235020 | 84 | 94 | 0.0 | 2.6 | 0.00 | 0.00 | 0.00 | 73 | 1011.8 |
| 20260504234533 | 83 | 94 | 0.9 | 2.6 | 0.00 | 0.00 | 0.00 | 73 | 1011.9 |
| 20260504234020 | 83 | 88 | 0.9 | 5.2 | 0.00 | 0.00 | 0.00 | 73 | 1011.7 |
| 20260504233521 | 83 | 113 | 2.6 | 5.2 | 0.00 | 0.00 | 0.00 | 74 | 1011.7 |
| 20260504233038 | 82 | 107 | 0.0 | 1.7 | 0.00 | 0.00 | 0.00 | 75 | 1011.8 |
| 20260504232524 | 82 | 0 | 0.0 | 0.0 | 0.00 | 0.00 | 0.00 | 76 | 1011.7 |
| 20260504232020 | 82 | 0 | 0.0 | 0.0 | 0.00 | 0.00 | 0.00 | 76 | 1011.8 |
| 20260504231555 | 81 | 0 | 0.0 | 0.0 | 0.00 | 0.00 | 0.00 | 77 | 1011.7 |
| 20260504231024 | 81 | 0 | 0.0 | 0.0 | 0.00 | 0.00 | 0.00 | 78 | 1011.7 |
| 20260504230520 | 81 | 0 | 0.0 | 0.0 | 0.00 | 0.00 | 0.00 | 79 | 1011.7 |
| 20260504230038 | 80 | 0 | 0.0 | 0.0 | 0.00 | 0.00 | 0.00 | 80 | 1011.6 |
| 20260504225524 | 79 | 0 | 0.0 | 0.0 | 0.00 | 0.00 | 0.00 | 82 | 1011.6 |
| 20260504225021 | 79 | 0 | 0.0 | 0.0 | 0.00 | 0.00 | 0.00 | 82 | 1011.6 |
| 20260504224540 | 78 | 0 | 0.0 | 1.7 | 0.00 | 0.00 | 0.00 | 83 | 1011.6 |
| 20260504224023 | 78 | 0 | 0.0 | 1.7 | 0.00 | 0.00 | 0.00 | 83 | 1011.4 |
| 20260504223523 | 77 | 0 | 0.0 | 1.7 | 0.00 | 0.00 | 0.00 | 84 | 1011.5 |
| 20260504223041 | 77 | 336 | 0.0 | 1.7 | 0.00 | 0.00 | 0.00 | 85 | 1011.4 |
| 20260504222522 | 76 | 336 | 0.0 | 1.7 | 0.00 | 0.00 | 0.00 | 87 | 1011.3 |
| 20260504222021 | 76 | 336 | 0.9 | 0.9 | 0.00 | 0.00 | 0.00 | 86 | 1011.2 |